Tracking 30923 objects as of 1-Jul-2025
HD Live streaming from Space Station
objects crossing your sky now

IUS R/B(2)

Track IUS R/B(2) now!


NORAD ID: 23615
Int'l Code: 1995-035D
Perigee: 35,687.8 km
Apogee: 35,782.5 km
Inclination: 15.9 °
Period: 1,433.1 minutes
Semi major axis: 42106 km
RCS: 5.3271 m2 (large)
Launch date: July 13, 1995
Source: United States (US)
Launch site: AIR FORCE EASTERN TEST RANGE (AFETR)

Note: This is a ROCKET BODY
Your satellite tracking list
COSMOS 2085
Track 1 satellite(s)




NASA's NSSDC Master Catalog

Two Line Element Set (TLE):
1 23615U 95035D   25181.20942008 -.00000059  00000-0  00000-0 0  9996
2 23615  15.9082 344.7932 0011249 169.1586 192.3797  1.00481116109874
Source of the keplerian elements: AFSPC